Regional Weather Roundup
Issued by NWS Sterling, VA

Home | Current Version | Previous Version | Graphics & Text | Print | Product List | Glossary On
Versions: 1 2 3 4 5 6 7 8 9 10 11 12 13 14 15 16 17 18 19 20 21 22 23 24 25 26 27 28 29 30 31 32 33 34 35 36 37 38 39 40 41 42 43 44 45 46 47 48 49 50
000
ASUS41 KLWX 051010
RWRLWX

REGIONAL WEATHER ROUNDUP
NATIONAL WEATHER SERVICE BALTIMORE MD/WASHINGTON DC
600 AM EDT SUN JUL 05 2015

Note: "FAIR" indicates few or no clouds below 12,000 feet
with no significant weather and/or obstructions to visibility.
 TC=TEMPERATURE CELSIUS

 * =Non NWS site. Station does not report precipitation (e.g. rain,
    snow, etc.), thunder, or fog.

DCZ001-MDZ009-015-VAZ040>042-051-053>054-051100-
WASHINGTON METRO

CITY           SKY/WX    TMP DP  RH WIND       PRES   REMARKS
WASHINGTON NAT MOCLDY    71  67  87 NE5       30.09R FOG
DULLES         FOG       66  66 100 NE3       30.09R VSB 1/2
ANDREWS AFB    FAIR      66  64  94 N5        30.08R FOG
FT BELVOIR     FOG       68  66  94 CALM      30.09R VSB 3/4
QUANTICO       CLOUDY    70  67  90 NW6       30.09R FOG
COLLEGE PARK*    N/A     64  64 100 CALM      30.08R
LEESBURG*      FOG       64  64 100 N3        30.11R VSB 1/4
MANASSAS*        N/A    N/A N/A N/A MISG        N/A
GAITHERSBURG*  CLOUDY    63  61  94 CALM      30.14R VSB 3/4

$$

MDZ006>007-011-014-051100-
BALTIMORE METRO

CITY           SKY/WX    TMP DP  RH WIND       PRES   REMARKS
BWI AIRPORT    MOCLDY    66  64  93 N3        30.08R FOG
MD SCIENCE CTR   N/A     69  65  86 MISG      30.09R
MARTIN STATE   PTCLDY    66  66 100 CALM      30.10R
ANNAPOLIS      PTCLDY    69  66  90 N5        30.07R FOG
FORT MEADE*      N/A     61  59  94 CALM      30.11R VSB 1

$$

MDZ012-015-019>023-051100-
MARYLAND EASTERN SHORE

CITY           SKY/WX    TMP DP  RH WIND       PRES   REMARKS
OCEAN CITY     CLOUDY    71  69  93 N5        30.07R
SALISBURY      CLOUDY    69  69 100 N5        30.07R FOG
BAY BRIDGE AP*   N/A     68  68 100 CALM      30.07R
CAMBRIDGE*       N/A     70  66  88 CALM      30.06S
EASTON*        PTCLDY   N/A N/A N/A CALM        N/A  FOG

$$

MDZ017>025-051100-
SOUTHERN MARYLAND

CITY           SKY/WX    TMP DP  RH WIND       PRES   REMARKS
PATUXENT RIVER CLOUDY    71  70  96 N5        30.07R FOG
ST INIGOES     NOT AVBL
LEONARDTOWN*   CLOUDY    68  68 100 CALM      30.09R

$$

MDZ003>005-051100-
NORTH CENTRAL MARYLAND

CITY           SKY/WX    TMP DP  RH WIND       PRES   REMARKS
FREDERICK*     CLOUDY    64  64 100 CALM      30.13R FOG
HAGERSTOWN APT FOG       63  61  93 W3        30.11R VSB 1/2
WESTMINSTER*   FOG       63  61  94 CALM      30.10R VSB 1/4

$$

MDZ501>502-051100-
WESTERN MARYLAND

CITY           SKY/WX    TMP DP  RH WIND       PRES   REMARKS
OAKLAND*       PTCLDY    61 N/A N/A S3        30.18R
CUMBERLAND*    PTCLDY    63  63 100 N3        30.15R

$$

VAZ025>031-051100-
SHENANDOAH VALLEY

CITY           SKY/WX    TMP DP  RH WIND       PRES   REMARKS
WINCHESTER*    CLOUDY    66  64  94 CALM      30.11R FOG
FRONT ROYAL*   CLOUDY    68  66  94 CALM      30.10R
LURAY*         CLOUDY    68  68 100 CALM      30.11R FOG
NEW MARKET*    CLOUDY    67  66  97 CALM      30.10R
STAUNTON*      CLOUDY    68  66  93 CALM      30.14R FOG
WAYNESBORO*    CLOUDY    63  63 100 CALM      30.13R

$$

WVZ021-048>050-054>055-051100-
EASTERN WEST VIRGINIA PANHANDLE

CITY           SKY/WX    TMP DP  RH WIND       PRES   REMARKS
MARTINSBURG    CLOUDY    64  62  93 N3        30.11R FOG
PETERSBURG*    FOG       61  59  93 CALM      30.14R VSB 1/4

$$

VAZ036>039-050-051100-
CENTRAL FOOTHILLS

CITY           SKY/WX    TMP DP  RH WIND       PRES   REMARKS
CHARLOTTESVILL MOCLDY    66  64  93 CALM      30.09R FOG
CULPEPER*      FOG       66  66 100 CALM      30.10R VSB 1/4
ORANGE*        FOG       68  68 100 CALM      30.10R VSB 1/4
GORDONSVILLE*  FOG       66  66 100 NE5       30.08R VSB 1/2
WARRENTON*     CLOUDY    67  67 100 CALM      30.09R FOG

$$

VAZ055>057-051100-
NORTH AND CENTRAL PIEDMONT

CITY           SKY/WX    TMP DP  RH WIND       PRES   REMARKS
FREDERICKSBRG* MOCLDY    72  72 100 CALM      30.07R FOG
STAFFORD*      FOG       66  65  97 CALM      30.12R VSB<1/4

$$

NCZ024-NYZ072-PAZ021-071-VAZ022-071-051100-
OTHER REGIONAL OBSERVATIONS

CITY           SKY/WX    TMP DP  RH WIND       PRES   REMARKS
NEW YORK CITY  CLOUDY    70  59  68 CALM      30.10R
PHILADELPHIA   MOCLDY    68  60  75 CALM      30.09R
PITTSBURGH     CLOUDY    58  54  86 CALM      30.12R
ROANOKE        CLOUDY    68  65  90 CALM      30.13R
RICHMOND       FOG       69  68  96 CALM      30.09R VSB 1/2
RALEIGH        MOCLDY    72  68  87 SW6       30.09R

$$

ANZ530>537-051100-
MARINE OBSERVATIONS

STATION/POSITION TIME  TEMP    WIND        PRES
                       AIR SEA DIR/SP/G
                 (UTC) (F)     (DEG/KT/KT) (MB)
THOMAS PT LIGHT  1000   71 77   10/  8/  9 1018.9R
BALT KEY BRIDGE  0900   69     360/  4/  5 1018.0R
COVE POINT       0900   72      60/  5/  6 1018.3R
LEWISETTA        0900   72 79   20/  3/  6 1017.5R
SOLOMONS ISLAND  0900      79                N/A
PINEY POINT      0906           30/  5/  6   N/A

$$




USA.gov is the U.S. government's official web portal to all federal, state and local government web resources and services.